Dewpoint
18 16 15 14 12 11 11 11 11 12 12 13 14 14 15 16 16 16 16 16 15 16 17 19 20 22 23 22 23 24 24 23 22 21 22 23 24 22 21 22 24 24 25
17 16 15 13 12 11 11 12 12 12 13 14 15 15 16 17 17 16 16 16 16 16 18 19 20 20 22 22 23 23 23 23 22 23 25 23 20 21 22 22 25 27 34
17 15 14 13 12 12 13 13 13 13 14 15 16 16 16 18 17 16 15 16 17 18 19 20 20 21 22 22 22 22 23 23 25 24 22 22 23 24 25 28 28 24 19
17 16 15 14 13 14 14 14 14 14 14 15 16 16 16 16 16 15 18 19 20 19 21 21 21 22 22 22 22 22 24 23 22 23 24 25 24 27 28 20 17 19 18
17 18 17 15 15 15 15 15 14 15 14 15 15 15 15 15 11 20 21 21 20 19 20 20 21 24 26 25 22 21 22 24 25 25 23 26 21 19 16 18 18 19 21
18 18 17 16 16 16 15 13 13 13 14 14 14 14 14 13 23 25 25 23 21 20 20 21 21 24 24 28 28 28 26 22 25 28 23 20 18 17 19 19 23 23 18
17 16 16 16 16 15 13 12 12 12 13 13 13 13 13 13 22 26 27 23 21 21 21 21 21 20 25 25 27 27 30 32 27 23 20 18 18 19 26 25 23 23 21
16 15 16 15 13 12 11 10 11 12 12 13 13 13 13 11 24 25 27 22 22 22 21 21 21 22 26 23 24 31 24 22 20 19 19 21 26 24 20 21 24 24 24
14 13 13 12 11 10 10 11 11 12 13 12 13 12 11 12 23 25 25 21 21 21 21 22 25 25 25 28 27 23 19 18 20 25 29 26 25 26 25 25 22 21 18
12 12 11 11 10 10 11 12 12 13 13 13 11 11 16 13 22 25 24 21 20 20 25 26 25 23 27 30 21 19 18 17 24 26 17 18 21 21 25 22 24 20 19
12 12 12 11 11 12 12 13 13 12 12 12 12 12 13 16 20 25 25 21 20 21 19 21 22 27 29 25 25 18 19 24 22 16 17 18 20 20 20 22 24 23 20
13 12 11 12 12 12 13 13 12 12 12 12 13 15 17 17 23 23 25 25 25 19 21 22 23 27 24 24 22 25 26 23 16 17 19 19 19 20 21 22 23 24 25
10 11 12 13 13 13 13 12 12 13 14 14 15 17 17 18 18 24 25 26 24 23 22 23 25 24 22 20 22 24 23 17 18 20 19 19 19 21 22 22 23 23 23
10 12 13 14 15 14 14 13 13 15 16 17 17 17 18 17 18 19 20 20 24 22 24 21 21 20 21 20 18 17 16 17 19 20 19 19 20 19 19 20 20 20 21
11 12 14 16 14 14 13 13 17 17 19 18 19 18 17 17 18 23 22 20 21 22 21 16 14 14 15 15 15 16 16 17 19 18 18 18 18 18 18 20 20 21 19
12 13 16 16 14 14 14 14 19 20 22 22 22 20 18 22 23 24 24 25 24 24 17 14 15 15 15 15 15 16 17 18 18 19 18 17 17 18 18 19 20 20 20
12 15 15 15 14 14 15 15 15 16 20 20 20 21 21 21 22 23 24 23 22 21 15 16 16 16 16 16 17 17 17 17 18 17 17 17 19 17 18 18 19 20 21
14 20 16 16 16 16 16 15 16 15 14 14 17 18 19 21 22 24 23 20 14 16 16 16 16 16 16 17 18 17 17 17 17 16 18 17 17 17 17 18 19 20 24
15 16 17 17 16 18 16 16 16 16 14 12 12 14 16 20 23 22 20 15 16 16 15 16 16 16 17 18 18 17 17 17 19 18 16 17 17 18 17 18 20 24 26
15 19 19 17 16 17 17 16 15 13 11 11 11 11 13 18 18 15 15 16 16 15 15 16 16 17 18 18 17 16 16 16 16 17 16 17 18 19 19 19 20 22 23
15 16 19 17 17 17 16 14 12 11 11 11 12 14 21 18 15 15 15 15 15 16 16 16 16 17 17 17 17 16 16 16 17 17 17 18 19 19 20 21 21 24 24
17 17 17 17 16 13 13 12 11 11 12 13 14 14 20 15 15 16 15 15 16 17 17 17 17 17 18 17 17 17 16 16 17 18 18 19 20 20 21 22 24 24 24
16 16 15 13 12 14 11 11 12 12 14 14 14 14 14 14 14 14 14 15 16 16 16 16 17 16 17 18 19 19 18 17 19 20 19 19 21 22 26 26 24 24 22
15 13 11 10 11 12 11 12 12 15 14 14 14 13 14 14 13 14 15 16 15 15 15 16 17 17 17 18 19 20 20 21 22 24 28 30 28 28 28 26 25 23 21
12 11 11 11 11 11 12 13 14 14 14 13 13 14 14 13 14 15 15 14 14 14 14 15 16 17 18 18 18 19 22 29 32 32 31 29 29 28 28 26 26 22 20
11 11 11 11 11 12 12 13 13 13 13 13 14 14 14 14 14 14 14 14 13 13 13 14 16 17 18 18 20 24 29 34 33 33 29 28 29 29 29 24 22 22 18
Lifted_Index
10 10 10 10 10 10 10 10 11 12 13 15 17 18 18 18 18 19 19 20 20 20 20 21 21 21 22 22 22 23 22 22 22 21 21 21 20 19 18 17 16 15 15
10 10 10 10 10 10 10 10 11 12 15 17 18 18 18 18 18 19 19 20 20 20 20 21 21 22 22 22 22 22 22 22 21 20 20 19 18 17 16 16 15 14 14
10 10 9 10 10 10 10 11 12 14 16 17 18 18 18 18 19 19 20 20 20 20 21 21 21 22 22 22 22 22 22 21 20 18 18 17 16 15 14 14 14 14 14
9 9 9 9 10 10 10 11 13 15 17 18 18 18 18 19 19 20 20 20 20 21 21 22 22 22 22 22 22 21 20 19 18 16 15 15 14 14 14 14 14 14 14
9 9 9 10 10 10 11 12 14 17 17 18 18 18 19 19 20 20 20 21 21 21 22 22 22 23 22 22 21 20 18 17 15 14 14 14 14 14 14 15 15 15 14
9 9 10 10 10 10 11 13 15 17 17 17 18 18 19 19 20 20 21 21 21 22 22 22 23 22 22 21 20 18 16 15 14 14 14 14 15 15 15 15 15 15 14
9 9 10 10 10 10 11 14 16 17 17 17 17 18 19 19 20 21 21 22 22 22 22 22 22 21 21 19 18 16 15 14 14 15 15 15 15 15 16 16 16 15 15
9 9 10 10 10 11 13 15 17 17 17 17 17 18 19 20 21 22 22 22 22 22 22 21 21 20 19 17 16 15 15 15 15 16 16 16 16 16 16 16 16 15 15
9 10 10 10 11 12 15 16 17 17 16 17 18 19 19 20 22 22 22 22 22 22 21 20 19 18 17 16 15 15 16 16 16 15 15 15 15 16 16 16 16 15 14
10 10 10 11 13 15 16 17 17 16 16 17 18 19 20 21 22 22 22 22 21 21 20 19 18 17 16 15 15 16 16 16 16 15 15 15 15 15 15 15 15 15 14
10 11 11 13 15 16 17 17 16 16 17 17 18 20 21 22 22 22 22 21 20 20 19 18 17 16 15 16 16 16 16 16 16 15 15 14 14 14 15 15 15 15 14
11 11 13 15 17 17 17 17 16 16 17 17 19 20 21 22 22 22 21 20 19 19 18 17 17 16 16 17 17 17 16 16 16 15 14 14 14 14 14 14 14 14 14
12 13 15 17 17 17 17 16 16 17 17 18 19 20 21 22 22 22 21 19 18 17 17 17 17 17 17 17 17 16 16 16 15 15 14 14 15 15 14 14 14 14 13
13 15 17 17 17 17 17 17 17 18 18 19 20 20 21 21 22 21 20 19 18 17 17 17 17 17 17 17 16 16 16 16 15 15 14 14 15 14 14 14 14 13 13
16 16 17 17 17 17 17 17 18 19 20 21 21 22 21 21 21 20 19 18 17 17 17 17 17 16 16 16 15 15 15 15 15 14 14 14 14 14 14 14 13 13 12
17 17 17 17 17 17 17 17 19 21 22 22 22 22 22 21 20 19 18 17 17 17 17 16 16 16 15 15 15 15 14 14 14 14 13 13 13 13 13 13 13 12 12
18 17 17 17 17 17 17 18 19 20 21 22 22 22 21 20 19 18 17 17 17 17 17 16 16 16 15 15 15 14 14 13 13 13 13 12 12 12 12 12 12 12 12
18 18 18 17 17 17 18 19 20 20 21 21 21 21 20 19 18 17 17 17 16 16 16 16 16 16 15 15 15 14 13 13 12 12 12 12 12 12 12 12 11 11 11
18 18 18 17 18 19 20 20 21 21 21 21 20 20 19 18 17 17 17 16 16 16 17 17 16 16 16 15 14 14 13 12 12 11 11 11 11 11 11 11 11 11 11
18 18 17 18 19 20 20 21 21 21 20 20 20 19 18 17 16 16 16 17 17 17 17 17 17 16 16 15 14 13 12 11 11 11 10 10 10 10 10 10 10 10 10
17 17 18 19 20 20 21 21 21 21 20 19 18 18 17 17 16 16 16 17 17 17 18 17 17 16 15 14 13 12 11 11 10 10 10 10 10 10 10 10 10 10 10
18 18 19 20 20 21 21 21 21 20 20 18 17 17 17 16 16 17 17 17 18 18 18 17 16 16 15 13 12 11 11 10 10 10 10 10 10 10 10 10 10 10 10
19 19 20 20 21 21 21 21 20 20 18 17 17 16 16 16 17 17 18 18 18 18 18 17 16 15 14 13 11 11 10 10 10 10 10 10 10 10 10 10 10 10 9
20 20 20 20 21 21 21 20 19 18 17 17 16 16 16 17 17 17 18 18 18 18 18 17 16 15 13 12 11 10 10 10 11 11 10 10 10 10 10 10 10 10 9
21 21 21 21 21 21 20 19 18 17 16 16 16 16 17 17 17 18 18 18 18 18 17 16 15 14 13 12 11 11 11 11 11 11 10 10 10 10 10 10 10 9 9
21 21 21 21 21 21 20 18 17 16 16 16 16 17 17 17 18 18 18 18 18 17 16 16 15 14 13 12 11 11 11 11 11 10 10 10 10 10 10 10 9 9 8